Regional Weather Roundup
Issued by NWS Spokane, WA

Home | Current Version | Previous Version | Text Only | Print | Product List | Glossary On
Versions: 1 2 3 4 5 6 7 8 9 10 11 12 13 14 15 16 17 18 19 20 21 22 23 24 25 26 27 28 29 30 31 32 33 34 35 36 37 38 39 40 41 42 43 44 45 46 47 48 49 50
000
NZUS01 KOTX 211205
RWROTX
EASTERN WASHINGTON/NORTHERN IDAHO ROUNDUP
NATIONAL WEATHER SERVICE, SPOKANE WA
400 AM PST SUN DEC 21 2014

Note: "fair" indicated few or no clouds below 12,000 feet with no
significant weather and/or obstructions to visibility.

...NORTHEAST WASHINGTON AND NORTHERN IDAHO PANHANDLE...

CITY           SKY/WX    TMP DP  RH WIND       PRES   REMARKS
SPOKANE INTL   CLOUDY    45  43  93 W23G31    29.53R
SPOKANE DOWNTO CLOUDY    49  43  80 W15G26    29.53R
COEUR D ALENE  CLOUDY    46  43  87 W17G23    29.49R
DEER PARK      CLOUDY    46  43  89 SW13      29.50R
SANDPOINT      LGT RAIN  36  36 100 CALM      29.48R

...SOUTHEAST WASHINGTON AND SOUTHERN IDAHO PANHANDLE...

CITY           SKY/WX    TMP DP  RH WIND       PRES   REMARKS
WALLA WALLA    CLOUDY    56  47  71 SW24G33   29.68R
PULLMAN/MOSCOW CLOUDY    50  47  89 W22G36    29.58R
LEWISTON       LGT RAIN  60  41  49 W35G51    29.54R
LOWELL           N/A     39  37  92 CALM      29.65R

...COLUMBIA BASIN...

CITY           SKY/WX    TMP DP  RH WIND       PRES   REMARKS
EPHRATA        MOCLDY    46  38  73 W21G28    29.59R
MOSES LAKE     MOCLDY    42  39  89 NW7       29.63R
TRI CITIES     CLOUDY    57  45  64 SW14G29   29.66R
HERMISTON      CLOUDY    56  47  71 W18G32    29.71R
PENDLETON      CLOUDY    54  47  77 W22G31    29.72R

...EAST SLOPES CASCADES...

CITY           SKY/WX    TMP DP  RH WIND       PRES   REMARKS
THE DALLES     CLOUDY    54  48  80 N9        29.77R
YAKIMA         LGT RAIN  44  40  85 VRB3      29.66R
ELLENSBURG     CLOUDY    46  39  76 W7        29.63R
WENATCHEE      LGT RAIN  36  34  92 SE5       29.61R FOG
OMAK           PTCLDY    35  33  92 S8        29.56R WCI  29

...SOUTHERN BRITISH COLUMBIA...

CITY           SKY/WX    TMP DP  RH WIND       PRES   REMARKS

...WESTERN MONTANA...

CITY           SKY/WX    TMP DP  RH WIND       PRES   REMARKS
MISSOULA       MIX PCPN  32  32 100 CALM      29.51F FOG

...NEIGHBORING CITIES...

CITY           SKY/WX    TMP DP  RH WIND       PRES   REMARKS
SEATTLE        CLOUDY    51  45  79 SW15G24   29.74R



USA.gov is the U.S. government's official web portal to all federal, state and local government web resources and services.